Kefallinia, Greece

5:36 AM EEST on October 17, 2017 (GMT +0300)
Kefallinia

Weather History for LGKF - February, 2014

Change the Weather History Date:

Tuesday, February 4, 2014

  Actual Average Record
Temperature  
Mean Temperature 54 °F -  
Max Temperature 57 °F 55 °F 63 °F (2017)
Min Temperature 50 °F 46 °F 47 °F (2015)
Degree Days  
Heating Degree Days 12    
Growing Degree Days 4 (Base 50)    
Moisture  
Dew Point 44 °F    
Average Humidity 75    
Maximum Humidity 87    
Minimum Humidity 62    
Precipitation  
Precipitation 0.00 in - - ()
Sea Level Pressure  
Sea Level Pressure 30.09 in    
Wind  
Wind Speed 8 mph ()    
Max Wind Speed 16 mph    
Max Gust Speed -    
Visibility 5.5 miles    
Events Rain , Thunderstorm    
Averages and records for this station are not official NWS values.
T = Trace of Precipitation, MM = Missing Value Source: Averaged Metar Reports

Daily Weather History Graph

Daily Weather History Graph

Search for Another Location

Airport or City:

Trip Planner

Search our weather history database for the weather conditions in past years. The results will help you decide how hot, cold, wet, or windy it might be!

Date:

Astronomy

Feb. 04, 2014 Rise Set
Actual Time 7:40 AM EET 6:04 PM EET
Civil Twilight 7:12 AM EET 6:31 PM EET
Nautical Twilight 6:41 AM EET 7:03 PM EET
Astronomical Twilight 6:10 AM EET 7:34 PM EET
Moon 10:12 AM EET (2/4) 11:33 PM EET (2/4)
Length of Visible Light 11h 19m
Length of Day
10h 23m
Waxing Crescent, 26% of the Moon is Illuminated
Feb 4
Waxing Crescent
Feb 6
First Quarter
Feb 15
Full
Feb 22
Last Quarter
Mar 1
New

Hourly Weather History & Observations

Time (EET) Temp. Dew Point Humidity Pressure Visibility Wind Dir Wind Speed Gust Speed Precip Events Conditions
12:20 AM 53.6 °F 42.8 °F 67% 29.98 in - East 11.5 mph - N/A Rain Light Rain
12:50 AM 53.6 °F 41.0 °F 62% 29.98 in - ESE 9.2 mph - N/A Rain Light Rain
1:20 AM 53.6 °F 41.0 °F 62% 30.01 in - ESE 12.7 mph - N/A Rain Light Rain
1:50 AM 53.6 °F 42.8 °F 67% 30.01 in - SE 10.4 mph - N/A   Unknown
2:20 AM 50.0 °F 42.8 °F 76% 30.01 in - ESE 10.4 mph - N/A Rain Light Rain
2:50 AM 50.0 °F 42.8 °F 76% 30.01 in - East 8.1 mph - N/A Rain Light Rain
3:20 AM 51.8 °F 42.8 °F 71% 30.01 in - ESE 6.9 mph - N/A Rain Light Rain
3:50 AM 51.8 °F 42.8 °F 71% 30.01 in - ESE 10.4 mph - N/A Rain Light Rain
4:20 AM 50.0 °F 42.8 °F 76% 30.04 in - East 10.4 mph - N/A Rain Light Rain
5:20 AM 50.0 °F 42.8 °F 76% 30.04 in - East 5.8 mph - N/A   Unknown
5:50 AM 50.0 °F 42.8 °F 76% 30.04 in 6.2 mi ESE 8.1 mph - N/A   Scattered Clouds
6:50 AM 51.8 °F 44.6 °F 76% 30.04 in 6.2 mi ESE 10.4 mph - N/A Rain Light Rain
7:20 AM 50.0 °F 44.6 °F 82% 0.00 in - SE 8.1 mph - N/A Rain Light Rain
7:50 AM 50.0 °F 44.6 °F 82% 30.06 in 6.2 mi ESE 15.0 mph - N/A   Mostly Cloudy
8:20 AM 51.8 °F 44.6 °F 76% 30.06 in - East 12.7 mph - N/A   Unknown
8:50 AM 51.8 °F 42.8 °F 71% 30.09 in - ESE 10.4 mph - N/A   Unknown
9:20 AM 53.6 °F 42.8 °F 67% 30.09 in - SE 5.8 mph - N/A   Unknown
9:50 AM 55.4 °F 42.8 °F 63% 30.09 in 6.2 mi ESE 9.2 mph - N/A   Mostly Cloudy
10:20 AM 55.4 °F 42.8 °F 63% 30.09 in - East 8.1 mph - N/A Rain Light Rain
10:50 AM 53.6 °F 44.6 °F 72% 30.12 in 4.3 mi SSE 16.1 mph - N/A Rain Light Rain
11:20 AM 50.0 °F 44.6 °F 82% 30.12 in - ESE 9.2 mph - N/A Rain Rain
11:50 AM 51.8 °F 46.4 °F 82% 30.12 in 6.2 mi ESE 8.1 mph - N/A   Mostly Cloudy
12:20 PM 53.6 °F 46.4 °F 77% 30.12 in - SE 11.5 mph - N/A   Unknown
12:50 PM 51.8 °F 46.4 °F 82% 30.15 in 3.1 mi ESE 8.1 mph - N/A Rain Rain
1:20 PM 50.0 °F 46.4 °F 87% 30.12 in - East 4.6 mph - N/A Rain Light Rain
1:50 PM 51.8 °F 46.4 °F 82% 30.12 in - North - - N/A   Mostly Cloudy
2:20 PM 55.4 °F 48.2 °F 77% 30.09 in - SE 10.4 mph - N/A   Unknown
2:50 PM 57.2 °F 44.6 °F 63% 30.09 in 6.2 mi ESE 10.4 mph - N/A   Mostly Cloudy
3:20 PM 55.4 °F 44.6 °F 67% 30.09 in - ESE 8.1 mph - N/A   Unknown
3:50 PM 51.8 °F 46.4 °F 82% 30.12 in 4.3 mi NE 4.6 mph - N/A Rain , Thunderstorm Light Thunderstorms and Rain
4:20 PM 50.0 °F 44.6 °F 82% 30.12 in - ENE 5.8 mph - N/A Rain Light Rain
4:50 PM 50.0 °F 44.6 °F 82% 30.12 in 6.2 mi ENE 6.9 mph - N/A Rain Rain
5:50 PM 50.0 °F 44.6 °F 82% 30.12 in - SE 6.9 mph - N/A Rain Light Rain
6:20 PM 50.0 °F 44.6 °F 82% 30.12 in - East 8.1 mph - N/A Rain Light Rain
6:50 PM 50.0 °F 42.8 °F 76% 30.12 in - East 8.1 mph - N/A   Unknown
7:20 PM 50.0 °F 42.8 °F 76% 30.12 in - East 6.9 mph - N/A Rain Light Rain
7:50 PM 51.8 °F 42.8 °F 71% 30.12 in - ESE 5.8 mph - N/A Rain Light Rain
8:20 PM 50.0 °F 44.6 °F 82% 30.12 in - ESE 5.8 mph - N/A   Unknown
8:50 PM 51.8 °F 44.6 °F 76% 30.12 in - ESE 6.9 mph - N/A   Unknown
9:20 PM 51.8 °F 44.6 °F 76% 30.15 in - ESE 6.9 mph - N/A   Unknown
9:50 PM 51.8 °F 44.6 °F 76% 30.15 in - East 6.9 mph - N/A   Unknown
10:20 PM 51.8 °F 44.6 °F 76% 30.15 in - ESE 6.9 mph - N/A   Unknown
10:50 PM 51.8 °F 46.4 °F 82% 30.15 in - ESE 8.1 mph - N/A Rain Light Rain
11:20 PM 51.8 °F 46.4 °F 82% 30.12 in - ESE 10.4 mph - N/A Rain Light Rain
11:50 PM 51.8 °F 46.4 °F 82% 30.15 in - ESE 9.2 mph - N/A   Unknown